Location: ???? ?????
(37.9132°N, 22.9869°E)
Time: 21:51:52
(UTC+00:00)

Lacrosse 5 - Pass Details

Date: 04 August 2024
Orbit: 714 x 724 km, 57.0° (Epoch: 09 March)

Event Time Altitude Azimuth Distance (km) Brightness Sun altitude
Rises 19:04:57 0° 322° (NW) 3,120 6.7 -16.4°
Reaches altitude 10° 19:07:25 10° 328° (NNW) 2,198 5.5 -16.8°
Maximum altitude 19:12:19 49° 43° (NE) 926 2.4 -17.5°
Enters shadow 19:14:31 29° 101° (E) 1,291 2.7 -17.9°
